This is the latest recevied weather packets stored in our database for station/object W3AJR. If no packets are shown the sender has not sent any weather packets the latest 10 day(s).
| Time | Temp. | Humidity | Pressure | Rain* | Wind** | Luminosity | Snow |
|---|---|---|---|---|---|---|---|
| 1778192351 | 15.56° C | 66% | 1008.5 hPa | 0 mm | - | 206 W/m² | - |
| 1778192047 | 15° C | 67% | 1008.5 hPa | 0 mm | - | 179 W/m² | - |
| 1778191743 | 15.56° C | 65% | 1008.7 hPa | 0 mm | - | 56 W/m² | - |
| 1778191441 | 15.56° C | 66% | 1008.4 hPa | 0 mm | - | 62 W/m² | - |
| 1778191137 | 15.56° C | 65% | 1008.7 hPa | 0 mm | - | 63 W/m² | - |
| 1778190834 | 15.56° C | 65% | 1008.5 hPa | 0 mm | - | 69 W/m² | - |
| 1778190532 | 15.56° C | 64% | 1008.5 hPa | 0 mm | - | 62 W/m² | - |
| 1778190229 | 15.56° C | 64% | 1008.5 hPa | 0 mm | - | 62 W/m² | - |
| 1778189924 | 15.56° C | 65% | 1008.6 hPa | 0 mm | - | 63 W/m² | - |
| 1778189621 | 15.56° C | 64% | 1008.5 hPa | 0 mm | - | 64 W/m² | - |
| 1778189318 | 15.56° C | 64% | 1008.4 hPa | 0 mm | - | 65 W/m² | - |
| 1778189014 | 15.56° C | 64% | 1008.7 hPa | 0 mm | - | 66 W/m² | - |
| 1778188711 | 15.56° C | 63% | 1008.5 hPa | 0 mm | - | 66 W/m² | - |
| 1778188408 | 15.56° C | 65% | 1008.4 hPa | 0 mm | - | 67 W/m² | - |
| 1778188105 | 16.11° C | 63% | 1008.6 hPa | 0 mm | - | 148 W/m² | - |
| 1778187802 | 16.11° C | 62% | 1008.7 hPa | 0 mm | - | 399 W/m² | - |
| 1778187498 | 16.11° C | 62% | 1008.2 hPa | 0 mm | - | 413 W/m² | - |
| 1778187195 | 15.56° C | 64% | 1008.6 hPa | 0 mm | - | 439 W/m² | - |
| 1778186891 | 15.56° C | 64% | 1008.6 hPa | 0 mm | - | 404 W/m² | - |
| 1778186588 | 15.56° C | 64% | 1008.7 hPa | 0 mm | - | 440 W/m² | - |
| 1778186287 | 15.56° C | 64% | 1008.7 hPa | 0 mm | - | 478 W/m² | - |
| 1778185984 | 16.11° C | 62% | 1008.7 hPa | 0 mm | - | 481 W/m² | - |
| 1778185680 | 16.11° C | 61% | 1008.8 hPa | 0 mm | - | 468 W/m² | - |
| 1778185376 | 16.67° C | 62% | 1008.8 hPa | 0 mm | - | 507 W/m² | - |
| 1778185071 | 16.11° C | 62% | 1008.7 hPa | 0 mm | - | 557 W/m² | - |
* Rain latest hour (hover to see other rain measurements)
** Current wind speed in m/s (hover to see current wind gust speed)